Three Rivers, MI

6:26 AM EST on February 12, 2016 (GMT -0500)
Three Rivers Municipal-Haines

Weather History for KHAI - September, 2013

Change the Weather History Date:

Saturday, September 14, 2013

  Actual Average Record
Temperature  
Mean Temperature 54 °F -  
Max Temperature 70 °F 75 °F 92 °F (1952)
Min Temperature 39 °F 52 °F 32 °F (1963)
Degree Days  
Heating Degree Days 10    
Growing Degree Days 4 (Base 50)    
Moisture  
Dew Point 41 °F    
Average Humidity 66    
Maximum Humidity 96    
Minimum Humidity 29    
Precipitation  
Precipitation 0.00 in - - ()
Sea Level Pressure  
Sea Level Pressure 30.15 in    
Wind  
Wind Speed 1 mph (SSW)    
Max Wind Speed 10 mph    
Max Gust Speed -    
Visibility 9 miles    
Events Fog    
Averages and records for this station are not official NWS values.
T = Trace of Precipitation, MM = Missing Value Source: NWS Daily Summary

Daily Weather History Graph

Daily Weather History Graph

Search for Another Location

Airport or City:

Trip Planner

Search our weather history database for the weather conditions in past years. The results will help you decide how hot, cold, wet, or windy it might be!

Date:

Astronomy

Sep. 14, 2013 Rise Set
Actual Time 7:21 AM EDT 7:53 PM EDT
Civil Twilight 6:53 AM EDT 8:21 PM EDT
Nautical Twilight 6:20 AM EDT 8:54 PM EDT
Astronomical Twilight 5:46 AM EDT 9:28 PM EDT
Moon 4:37 PM EDT (9/14) 1:48 AM EDT (9/14)
Length of Visible Light 13h 27m
Length of Day
12h 31m
Waxing Gibbous, 72% of the Moon is Illuminated
Sep 14
Waxing Gibbous
Sep 19
Full
Sep 26
Last Quarter
Oct 4
New
Oct 11
First Quarter

Hourly Weather History & Observations

Time (EDT) Temp. Dew Point Humidity Pressure Visibility Wind Dir Wind Speed Gust Speed Precip Events Conditions
12:14 AM 46.2 °F 43.3 °F 90% 30.15 in 10.0 mi Calm Calm - N/A   Clear
12:35 AM 46.0 °F 42.8 °F 88% 30.15 in 10.0 mi Calm Calm - N/A   Clear
12:54 AM 45.0 °F 42.4 °F 91% 30.15 in 10.0 mi Calm Calm - N/A   Clear
1:14 AM 44.2 °F 41.9 °F 91% 30.15 in 10.0 mi Calm Calm - N/A   Clear
1:35 AM 44.1 °F 42.1 °F 93% 30.14 in 10.0 mi Calm Calm - N/A   Clear
1:54 AM 44.1 °F 41.9 °F 92% 30.14 in 10.0 mi Calm Calm - N/A   Clear
2:14 AM 43.9 °F 42.1 °F 93% 30.15 in 10.0 mi Calm Calm - N/A   Clear
2:35 AM 43.9 °F 41.9 °F 93% 30.15 in 10.0 mi Calm Calm - N/A   Clear
2:54 AM 42.4 °F 40.1 °F 91% 30.15 in 10.0 mi Calm Calm - N/A   Clear
3:14 AM 42.4 °F 40.5 °F 93% 30.15 in 10.0 mi Calm Calm - N/A   Clear
3:34 AM 42.4 °F 40.6 °F 93% 30.16 in 10.0 mi Calm Calm - N/A   Clear
3:54 AM 42.3 °F 40.5 °F 93% 30.15 in 0.2 mi Calm Calm - N/A Fog Fog
4:14 AM 43.0 °F 41.0 °F 93% 30.16 in 5.0 mi Calm Calm - N/A   Clear
4:34 AM 41.4 °F 39.6 °F 93% 30.16 in 1.8 mi Calm Calm - N/A   Mostly Cloudy
4:54 AM 41.2 °F 39.7 °F 95% 30.16 in 3.0 mi Calm Calm - N/A   Mostly Cloudy
5:15 AM 41.5 °F 40.1 °F 95% 30.17 in 0.2 mi Calm Calm - N/A Fog Fog
5:34 AM 41.2 °F 40.1 °F 96% 30.17 in 1.5 mi Calm Calm - N/A   Mostly Cloudy
5:54 AM 41.7 °F 40.5 °F 95% 30.17 in 7.0 mi Calm Calm - N/A   Clear
6:15 AM 40.8 °F 39.4 °F 95% 30.17 in 10.0 mi Calm Calm - N/A   Clear
6:34 AM 40.5 °F 39.0 °F 95% 30.17 in 10.0 mi Calm Calm - N/A   Clear
6:54 AM 40.8 °F 39.4 °F 95% 30.18 in 4.0 mi Calm Calm - N/A   Clear
7:14 AM 40.1 °F 38.8 °F 95% 30.18 in 10.0 mi Calm Calm - N/A   Clear
7:34 AM 39.0 °F 37.6 °F 95% 30.18 in 10.0 mi Calm Calm - N/A   Mostly Cloudy
7:54 AM 39.9 °F 38.7 °F 95% 30.19 in 10.0 mi Calm Calm - N/A   Scattered Clouds
8:14 AM 43.5 °F 42.4 °F 96% 30.19 in 2.5 mi Calm Calm - N/A   Clear
8:35 AM 44.8 °F 43.7 °F 96% 30.20 in 4.0 mi Calm Calm - N/A   Clear
8:54 AM 46.8 °F 45.7 °F 96% 30.20 in 10.0 mi Calm Calm - N/A   Clear
9:14 AM 48.2 °F 46.4 °F 93% 30.21 in 10.0 mi Calm Calm - N/A   Clear
9:35 AM 50.2 °F 46.9 °F 89% 30.21 in 10.0 mi SSW 3.5 mph - N/A   Clear
9:54 AM 52.5 °F 46.0 °F 79% 30.22 in 10.0 mi SSW 3.5 mph - N/A   Clear
10:14 AM 54.5 °F 44.1 °F 68% 30.22 in 10.0 mi SSW 4.6 mph - N/A   Clear
10:35 AM 57.0 °F 43.7 °F 61% 30.22 in 10.0 mi WSW 3.5 mph - N/A   Clear
10:54 AM 58.3 °F 41.7 °F 54% 30.22 in 10.0 mi WSW 5.8 mph - N/A   Clear
11:14 AM 59.0 °F 40.6 °F 51% 30.21 in 10.0 mi SSW 5.8 mph - N/A   Clear
11:34 AM 60.1 °F 39.7 °F 47% 30.21 in 10.0 mi SW 3.5 mph - N/A   Clear
11:54 AM 61.3 °F 40.1 °F 46% 30.21 in 10.0 mi South 3.5 mph - N/A   Clear
12:14 PM 62.1 °F 39.4 °F 43% 30.20 in 10.0 mi SSW 4.6 mph - N/A   Clear
12:34 PM 62.6 °F 38.8 °F 42% 30.19 in 10.0 mi Calm Calm - N/A   Clear
12:54 PM 64.2 °F 39.0 °F 39% 30.19 in 10.0 mi SSE 5.8 mph - N/A   Clear
1:15 PM 65.1 °F 38.1 °F 37% 30.18 in 10.0 mi Calm Calm - N/A   Clear
1:34 PM 65.5 °F 37.8 °F 36% 30.18 in 10.0 mi South 3.5 mph - N/A   Clear
1:54 PM 66.2 °F 37.9 °F 35% 30.17 in 10.0 mi WSW 6.9 mph - N/A   Clear
2:15 PM 65.8 °F 37.2 °F 35% 30.16 in 10.0 mi SSW 3.5 mph - N/A   Clear
2:34 PM 67.1 °F 37.8 °F 34% 30.15 in 10.0 mi Calm Calm - N/A   Clear
2:54 PM 68.9 °F 38.3 °F 33% 30.14 in 10.0 mi SSW 6.9 mph - N/A   Clear
3:14 PM 68.9 °F 37.2 °F 31% 30.13 in 10.0 mi South 6.9 mph - N/A   Clear
3:34 PM 68.5 °F 35.8 °F 30% 30.13 in 10.0 mi SSE 4.6 mph - N/A   Clear
3:55 PM 69.3 °F 36.1 °F 30% 30.13 in 10.0 mi WSW 3.5 mph - N/A   Clear
4:14 PM 70.0 °F 36.0 °F 29% 30.12 in 10.0 mi SSE 5.8 mph - N/A   Clear
4:34 PM 69.8 °F 36.7 °F 30% 30.11 in 10.0 mi SW 5.8 mph - N/A   Clear
4:55 PM 70.2 °F 37.0 °F 30% 30.11 in 10.0 mi SW 5.8 mph - N/A   Clear
5:14 PM 68.4 °F 37.2 °F 32% 30.11 in 10.0 mi South 10.4 mph - N/A   Clear
5:34 PM 69.8 °F 37.6 °F 31% 30.11 in 10.0 mi WSW 3.5 mph - N/A   Clear
5:54 PM 70.0 °F 36.9 °F 30% 30.11 in 10.0 mi WSW 3.5 mph - N/A   Clear
6:14 PM 69.6 °F 37.4 °F 31% 30.11 in 10.0 mi SSW 4.6 mph - N/A   Clear
6:34 PM 69.4 °F 37.8 °F 31% 30.10 in 10.0 mi SSW 6.9 mph - N/A   Clear
6:54 PM 68.2 °F 37.4 °F 32% 30.10 in 10.0 mi SW 6.9 mph - N/A   Clear
7:14 PM 65.7 °F 39.4 °F 38% 30.10 in 10.0 mi SW 5.8 mph - N/A   Clear
7:35 PM 63.9 °F 40.3 °F 42% 30.10 in 10.0 mi SW 3.5 mph - N/A   Clear
7:54 PM 62.1 °F 41.0 °F 46% 30.10 in 10.0 mi Calm Calm - N/A   Clear
8:14 PM 59.4 °F 41.2 °F 51% 30.10 in 10.0 mi Calm Calm - N/A   Clear
8:34 PM 59.2 °F 42.6 °F 54% 30.10 in 10.0 mi Calm Calm - N/A   Clear
8:54 PM 57.7 °F 42.3 °F 56% 30.11 in 10.0 mi Calm Calm - N/A   Clear
9:14 PM 56.1 °F 44.4 °F 65% 30.10 in 10.0 mi South 3.5 mph - N/A   Clear
9:34 PM 56.1 °F 43.7 °F 63% 30.11 in 10.0 mi Calm Calm - N/A   Clear
9:55 PM 54.0 °F 43.5 °F 68% 30.11 in 10.0 mi Calm Calm - N/A   Clear
10:14 PM 51.8 °F 44.2 °F 75% 30.11 in 10.0 mi Calm Calm - N/A   Clear
10:34 PM 54.3 °F 43.7 °F 67% 30.11 in 10.0 mi Calm Calm - N/A   Clear
10:55 PM 53.1 °F 43.7 °F 71% 30.10 in 10.0 mi Calm Calm - N/A   Clear
11:14 PM 53.1 °F 43.7 °F 71% 30.10 in 10.0 mi Calm Calm - N/A   Clear
11:34 PM 51.3 °F 42.6 °F 72% 30.09 in 10.0 mi South 4.6 mph - N/A   Clear
11:54 PM 51.4 °F 41.9 °F 70% 30.09 in 10.0 mi Calm Calm - N/A   Clear